This is the latest recevied weather packets stored in our database for station/object CYEG. If no packets are shown the sender has not sent any weather packets the latest 1 day(s).
| Time | Temp. | Humidity | Pressure | Rain* | Wind** | Luminosity | Snow |
|---|---|---|---|---|---|---|---|
| 1778084601 | 10.56° C | 32% | 1010.5 hPa | - | - | - | - |
| 1778084001 | 10.56° C | 32% | 1010.5 hPa | - | - | - | - |
| 1778082199 | 7.78° C | 36% | 1011.2 hPa | - | - | - | - |
| 1778081600 | 7.78° C | 36% | 1011.2 hPa | - | - | - | - |
| 1778080400 | 7.78° C | 36% | 1011.2 hPa | - | - | - | - |
| 1778078600 | 5° C | 41% | 1011.9 hPa | - | - | - | - |
| 1778078000 | 5° C | 41% | 1011.9 hPa | - | - | - | - |
| 1778075598 | 2.78° C | 44% | 1012.2 hPa | - | - | - | - |
| 1778074997 | 2.78° C | 44% | 1012.2 hPa | - | - | - | - |
| 1778073796 | 2.78° C | 44% | 1012.2 hPa | - | - | - | - |
| 1778070797 | 0.56° C | 50% | 1012.9 hPa | - | - | - | - |
| 1778069598 | 0.56° C | 50% | 1012.9 hPa | - | - | - | - |
| 1778067798 | 0° C | - | 1013.2 hPa | - | - | - | - |
| 1778067196 | 0° C | - | 1013.2 hPa | - | - | - | - |
| 1778063598 | 0° C | - | 1013.9 hPa | - | - | - | - |
| 1778063000 | 0° C | - | 1013.9 hPa | - | - | - | - |
| 1778062398 | 0° C | - | 1013.9 hPa | - | - | - | - |
| 1778061201 | 0.56° C | 50% | 1014.6 hPa | - | - | - | - |
| 1778060723 | 0.56° C | 50% | 1014.6 hPa | - | - | - | - |
| 1778059398 | 0.56° C | 50% | 1014.6 hPa | - | - | - | - |
| 1778058798 | 0.56° C | 50% | 1014.6 hPa | - | - | - | - |
| 1778058201 | 1.67° C | 51% | 1015.2 hPa | - | - | - | - |
| 1778057601 | 1.67° C | 51% | 1015.2 hPa | - | - | - | - |
| 1778057003 | 1.67° C | 51% | 1015.2 hPa | - | - | - | - |
| 1778055797 | 1.67° C | 51% | 1015.2 hPa | - | - | - | - |
* Rain since midnight (hover to see other rain measurements)
** Current wind speed in m/s (hover to see current wind gust speed)